Time,TemperatureF,DewpointF,PressureIn,WindDirection,WindDirectionDegrees,WindSpeedMPH,WindSpeedGustMPH,Humidity,HourlyPrecipIn,Conditions,Clouds,dailyrainin,SoftwareType,DateUTC
2013-04-14 00:00:00,43.6,41.2,29.91,WNW,294,0.0,3.0,91,0.00,,OVC080,0.05,VWS V13.01,2013-04-14 04:00:00,
2013-04-14 00:05:00,43.9,41.2,29.91,West,275,0.0,4.0,90,0.00,,OVC080,0.00,VWS V13.01,2013-04-14 04:05:00,
2013-04-14 00:10:00,44.0,41.0,29.91,West,275,0.0,4.0,89,0.00,,OVC080,0.00,VWS V13.01,2013-04-14 04:10:00,
2013-04-14 00:15:00,44.2,40.9,29.92,West,275,0.0,4.0,88,0.00,,OVC080,0.00,VWS V13.01,2013-04-14 04:15:00,
2013-04-14 00:20:00,44.3,40.7,29.92,WNW,301,0.0,4.0,87,0.00,,OVC080,0.00,VWS V13.01,2013-04-14 04:20:00,
2013-04-14 00:25:00,44.4,40.8,29.92,WNW,301,0.0,4.0,87,0.00,,OVC080,0.00,VWS V13.01,2013-04-14 04:25:00,
2013-04-14 00:30:00,44.5,40.6,29.92,WNW,301,0.0,4.0,86,0.00,,OVC080,0.00,VWS V13.01,2013-04-14 04:30:00,
2013-04-14 00:35:00,44.6,40.7,29.92,WNW,301,0.0,1.0,86,0.00,,OVC080,0.00,VWS V13.01,2013-04-14 04:35:00,
2013-04-14 00:40:00,44.7,40.8,29.92,NW,314,0.0,4.0,86,0.00,,OVC080,0.00,VWS V13.01,2013-04-14 04:40:00,
2013-04-14 00:45:00,44.7,40.5,29.92,NW,314,0.0,4.0,85,0.00,,-RA,0.00,VWS V13.01,2013-04-14 04:45:00,
2013-04-14 00:50:00,44.7,40.5,29.92,NW,314,0.0,4.0,85,0.00,,-RA,0.00,VWS V13.01,2013-04-14 04:50:00,
2013-04-14 00:55:00,44.7,40.2,29.91,NW,314,0.0,4.0,84,0.00,,-RA,0.00,VWS V13.01,2013-04-14 04:55:00,
2013-04-14 01:00:00,44.8,40.3,29.91,NW,314,0.0,4.0,84,0.00,,-RA,0.00,VWS V13.01,2013-04-14 05:00:00,
2013-04-14 01:05:00,44.7,40.5,29.91,NW,314,0.0,0.0,85,0.00,,-RA,0.00,VWS V13.01,2013-04-14 05:05:00,
2013-04-14 01:10:00,44.7,40.2,29.91,NW,314,0.0,0.0,84,0.00,,-RA,0.00,VWS V13.01,2013-04-14 05:10:00,
2013-04-14 01:16:00,44.7,40.5,29.90,NW,314,0.0,0.0,85,0.00,,-RA,0.00,VWS V13.01,2013-04-14 05:16:00,
2013-04-14 01:21:00,44.5,40.0,29.90,NW,314,0.0,1.0,84,0.00,,-RA,0.00,VWS V13.01,2013-04-14 05:21:00,
2013-04-14 01:26:00,44.3,40.1,29.90,NW,314,0.0,1.0,85,0.00,,-RA,0.00,VWS V13.01,2013-04-14 05:26:00,
2013-04-14 01:31:00,44.1,39.9,29.90,NW,314,0.0,1.0,85,0.00,,-RA,0.00,VWS V13.01,2013-04-14 05:31:00,
2013-04-14 01:36:00,43.9,39.7,29.89,NW,314,0.0,0.0,85,0.00,,-RA,0.00,VWS V13.01,2013-04-14 05:36:00,
2013-04-14 01:41:00,43.7,39.8,29.89,NW,314,0.0,0.0,86,0.00,,-RA,0.00,VWS V13.01,2013-04-14 05:41:00,
2013-04-14 01:46:00,43.5,39.9,29.89,NW,314,0.0,0.0,87,0.00,,OVC045,0.00,VWS V13.01,2013-04-14 05:46:00,
2013-04-14 01:51:00,43.4,39.5,29.89,NW,314,0.0,0.0,86,0.00,,OVC045,0.00,VWS V13.01,2013-04-14 05:51:00,
2013-04-14 01:57:00,43.3,39.7,29.89,NW,314,0.0,0.0,87,0.00,,OVC045,0.00,VWS V13.01,2013-04-14 05:57:00,
2013-04-14 02:02:00,43.1,39.5,29.89,NW,314,0.0,0.0,87,0.00,,OVC045,0.00,VWS V13.01,2013-04-14 06:02:00,
2013-04-14 02:07:00,43.0,39.4,29.89,NW,314,0.0,0.0,87,0.00,,OVC045,0.00,VWS V13.01,2013-04-14 06:07:00,
2013-04-14 02:12:00,42.8,39.2,29.89,NW,314,0.0,0.0,87,0.00,,OVC045,0.00,VWS V13.01,2013-04-14 06:12:00,
2013-04-14 02:17:00,42.4,39.1,29.89,NW,314,0.0,0.0,88,0.00,,OVC045,0.00,VWS V13.01,2013-04-14 06:17:00,
2013-04-14 02:22:00,42.2,38.9,29.89,NW,314,0.0,0.0,88,0.00,,OVC045,0.00,VWS V13.01,2013-04-14 06:22:00,
2013-04-14 02:27:00,42.0,38.7,29.89,NW,314,0.0,0.0,88,0.00,,OVC045,0.00,VWS V13.01,2013-04-14 06:27:00,
2013-04-14 02:32:00,41.8,38.8,29.90,NW,314,0.0,0.0,89,0.00,,OVC045,0.00,VWS V13.01,2013-04-14 06:32:00,
2013-04-14 02:37:00,41.6,38.6,29.89,NW,314,0.0,0.0,89,0.00,,OVC045,0.00,VWS V13.01,2013-04-14 06:37:00,
2013-04-14 02:43:00,41.4,38.4,29.89,NW,314,0.0,0.0,89,0.00,,OVC045,0.00,VWS V13.01,2013-04-14 06:43:00,
2013-04-14 02:48:00,41.2,38.5,29.90,NW,314,0.0,0.0,90,0.00,,OVC090,0.00,VWS V13.01,2013-04-14 06:48:00,
2013-04-14 02:53:00,41.0,38.3,29.90,NW,314,0.0,0.0,90,0.00,,OVC090,0.00,VWS V13.01,2013-04-14 06:53:00,
2013-04-14 02:58:00,40.8,38.4,29.90,NW,314,0.0,0.0,91,0.00,,OVC090,0.00,VWS V13.01,2013-04-14 06:58:00,
2013-04-14 03:03:00,40.5,38.1,29.90,NW,314,0.0,0.0,91,0.00,,OVC090,0.00,VWS V13.01,2013-04-14 07:03:00,
2013-04-14 03:09:00,40.3,38.2,29.89,NW,314,0.0,0.0,92,0.00,,OVC090,0.00,VWS V13.01,2013-04-14 07:09:00,
2013-04-14 03:14:00,40.1,38.0,29.89,NW,314,0.0,0.0,92,0.00,,OVC090,0.00,VWS V13.01,2013-04-14 07:14:00,
2013-04-14 03:19:00,39.7,37.3,29.90,NW,314,0.0,0.0,91,0.00,,OVC090,0.00,VWS V13.01,2013-04-14 07:19:00,
2013-04-14 03:24:00,39.1,36.7,29.90,NW,314,0.0,0.0,91,0.00,,OVC090,0.00,VWS V13.01,2013-04-14 07:24:00,
2013-04-14 03:29:00,38.8,36.7,29.90,NW,314,0.0,0.0,92,0.00,,OVC090,0.00,VWS V13.01,2013-04-14 07:29:00,
2013-04-14 03:34:00,38.6,36.8,29.90,NW,314,0.0,0.0,93,0.00,,OVC090,0.00,VWS V13.01,2013-04-14 07:34:00,
2013-04-14 03:39:00,38.5,36.9,29.90,NW,314,0.0,0.0,94,0.00,,OVC090,0.00,VWS V13.01,2013-04-14 07:39:00,
2013-04-14 03:44:00,38.5,36.9,29.89,NW,314,0.0,0.0,94,0.00,,OVC090,0.00,VWS V13.01,2013-04-14 07:44:00,
2013-04-14 03:49:00,38.5,37.2,29.90,NW,314,0.0,0.0,95,0.00,,BKN100,0.00,VWS V13.01,2013-04-14 07:49:00,
2013-04-14 03:54:00,38.6,37.3,29.90,NW,314,0.0,0.0,95,0.00,,BKN100,0.00,VWS V13.01,2013-04-14 07:54:00,
2013-04-14 03:59:00,38.7,37.4,29.90,NW,314,0.0,0.0,95,0.00,,BKN100,0.00,VWS V13.01,2013-04-14 07:59:00,
2013-04-14 04:04:00,38.7,37.4,29.90,NW,314,0.0,0.0,95,0.00,,BKN100,0.00,VWS V13.01,2013-04-14 08:04:00,
2013-04-14 04:09:00,38.8,37.5,29.91,NW,314,0.0,0.0,95,0.00,,BKN100,0.00,VWS V13.01,2013-04-14 08:09:00,
2013-04-14 04:14:00,38.9,37.6,29.91,NW,314,0.0,1.0,95,0.00,,BKN100,0.00,VWS V13.01,2013-04-14 08:14:00,
2013-04-14 04:19:00,39.0,37.7,29.91,NW,314,0.0,1.0,95,0.00,,BKN100,0.00,VWS V13.01,2013-04-14 08:19:00,
2013-04-14 04:24:00,39.2,37.9,29.91,NW,314,0.0,1.0,95,0.00,,BKN100,0.00,VWS V13.01,2013-04-14 08:24:00,
2013-04-14 04:29:00,39.2,37.9,29.91,NW,314,0.0,1.0,95,0.00,,BKN100,0.00,VWS V13.01,2013-04-14 08:29:00,
2013-04-14 04:34:00,39.3,38.0,29.91,NW,314,0.0,0.0,95,0.00,,BKN100,0.00,VWS V13.01,2013-04-14 08:34:00,
2013-04-14 04:39:00,39.4,38.1,29.91,NW,314,0.0,2.0,95,0.00,,BKN100,0.00,VWS V13.01,2013-04-14 08:39:00,
2013-04-14 04:44:00,39.5,38.2,29.91,NW,314,0.0,2.0,95,0.00,,BKN100,0.00,VWS V13.01,2013-04-14 08:44:00,
2013-04-14 04:50:00,39.6,38.0,29.91,NW,314,0.0,2.0,94,0.00,,OVC100,0.00,VWS V13.01,2013-04-14 08:50:00,
2013-04-14 04:55:00,39.7,38.1,29.91,NW,314,0.0,2.0,94,0.00,,OVC100,0.00,VWS V13.01,2013-04-14 08:55:00,
2013-04-14 05:00:00,39.8,38.2,29.92,NW,314,0.0,2.0,94,0.00,,OVC100,0.00,VWS V13.01,2013-04-14 09:00:00,
2013-04-14 05:05:00,39.9,38.0,29.91,NW,314,0.0,0.0,93,0.00,,OVC100,0.00,VWS V13.01,2013-04-14 09:05:00,
2013-04-14 05:10:00,40.0,38.1,29.91,NW,314,0.0,0.0,93,0.00,,OVC100,0.00,VWS V13.01,2013-04-14 09:10:00,
2013-04-14 05:15:00,40.0,37.9,29.91,NW,314,0.0,0.0,92,0.00,,OVC100,0.00,VWS V13.01,2013-04-14 09:15:00,
2013-04-14 05:20:00,40.1,38.0,29.91,NW,314,0.0,1.0,92,0.00,,OVC100,0.00,VWS V13.01,2013-04-14 09:20:00,
2013-04-14 05:25:00,40.2,38.1,29.91,NW,314,0.0,1.0,92,0.00,,OVC100,0.00,VWS V13.01,2013-04-14 09:25:00,
2013-04-14 05:30:00,40.2,38.1,29.91,NW,314,0.0,1.0,92,0.00,,OVC100,0.00,VWS V13.01,2013-04-14 09:30:00,
2013-04-14 05:35:00,40.3,37.9,29.91,NW,314,0.0,0.0,91,0.00,,OVC100,0.00,VWS V13.01,2013-04-14 09:35:00,
2013-04-14 05:40:00,40.3,37.9,29.91,NW,314,0.0,0.0,91,0.00,,OVC100,0.00,VWS V13.01,2013-04-14 09:40:00,
2013-04-14 05:45:00,40.4,37.7,29.91,NW,314,0.0,1.0,90,0.00,,OVC085,0.00,VWS V13.01,2013-04-14 09:45:00,
2013-04-14 05:50:00,40.4,37.7,29.92,NW,314,0.0,1.0,90,0.00,,OVC085,0.00,VWS V13.01,2013-04-14 09:50:00,
2013-04-14 05:55:00,40.3,37.9,29.92,NW,314,0.0,1.0,91,0.00,,OVC085,0.00,VWS V13.01,2013-04-14 09:55:00,
2013-04-14 06:00:00,40.4,38.0,29.92,NW,314,0.0,1.0,91,0.00,,OVC085,0.00,VWS V13.01,2013-04-14 10:00:00,
2013-04-14 06:06:00,40.4,38.0,29.92,NW,314,0.0,0.0,91,0.00,,OVC085,0.00,VWS V13.01,2013-04-14 10:06:00,
2013-04-14 06:11:00,40.4,38.0,29.92,NW,314,0.0,0.0,91,0.00,,OVC085,0.00,VWS V13.01,2013-04-14 10:11:00,
2013-04-14 06:16:00,40.4,38.0,29.92,NW,314,0.0,0.0,91,0.00,,OVC085,0.00,VWS V13.01,2013-04-14 10:16:00,
2013-04-14 06:21:00,40.4,38.0,29.93,NW,314,0.0,0.0,91,0.00,,OVC085,0.00,VWS V13.01,2013-04-14 10:21:00,
2013-04-14 06:26:00,40.4,38.0,29.93,NW,314,0.0,0.0,91,0.00,,OVC085,0.00,VWS V13.01,2013-04-14 10:26:00,
2013-04-14 06:31:00,40.4,38.0,29.93,NW,314,0.0,0.0,91,0.00,,OVC085,0.00,VWS V13.01,2013-04-14 10:31:00,
2013-04-14 06:36:00,40.4,38.0,29.93,NW,314,0.0,0.0,91,0.00,,OVC085,0.00,VWS V13.01,2013-04-14 10:36:00,
2013-04-14 06:41:00,40.4,37.7,29.93,NW,314,0.0,0.0,90,0.00,,OVC085,0.00,VWS V13.01,2013-04-14 10:41:00,
2013-04-14 06:46:00,40.2,37.8,29.93,NW,314,0.0,0.0,91,0.00,,OVC085,0.00,VWS V13.01,2013-04-14 10:46:00,
2013-04-14 06:52:00,40.1,37.4,29.93,NW,314,0.0,0.0,90,0.00,,OVC085,0.00,VWS V13.01,2013-04-14 10:52:00,
2013-04-14 06:57:00,40.0,37.6,29.93,NW,314,0.0,0.0,91,0.00,,OVC085,0.00,VWS V13.01,2013-04-14 10:57:00,
2013-04-14 07:02:00,39.9,37.5,29.93,NW,314,0.0,0.0,91,0.00,,OVC085,0.00,VWS V13.01,2013-04-14 11:02:00,
2013-04-14 07:07:00,39.8,37.4,29.93,NW,314,0.0,0.0,91,0.00,,OVC085,0.00,VWS V13.01,2013-04-14 11:07:00,
2013-04-14 07:12:00,39.8,37.7,29.93,NW,314,0.0,0.0,92,0.00,,OVC085,0.00,VWS V13.01,2013-04-14 11:12:00,
2013-04-14 07:17:00,39.7,37.6,29.94,NW,314,0.0,0.0,92,0.00,,OVC085,0.00,VWS V13.01,2013-04-14 11:17:00,
2013-04-14 07:23:00,39.6,37.5,29.94,NW,314,0.0,0.0,92,0.00,,OVC085,0.00,VWS V13.01,2013-04-14 11:23:00,
2013-04-14 07:28:00,39.7,37.8,29.94,NW,314,0.0,0.0,93,0.00,,OVC085,0.00,VWS V13.01,2013-04-14 11:28:00,
2013-04-14 07:33:00,40.0,37.9,29.94,NW,314,0.0,1.0,92,0.00,,OVC085,0.00,VWS V13.01,2013-04-14 11:33:00,
2013-04-14 07:38:00,40.7,38.0,29.94,WNW,299,0.0,2.0,90,0.00,,OVC085,0.00,VWS V13.01,2013-04-14 11:38:00,
2013-04-14 07:43:00,41.4,37.8,29.94,WNW,301,0.0,2.0,87,0.00,,OVC085,0.00,VWS V13.01,2013-04-14 11:43:00,
2013-04-14 07:48:00,41.7,38.1,29.94,WNW,301,0.0,2.0,87,0.00,,SCT090,0.00,VWS V13.01,2013-04-14 11:48:00,
2013-04-14 07:53:00,42.0,37.8,29.94,SW,234,1.0,3.0,85,0.00,,SCT090,0.00,VWS V13.01,2013-04-14 11:53:00,
2013-04-14 07:58:00,42.5,37.7,29.94,SW,234,0.0,3.0,83,0.00,,SCT090,0.00,VWS V13.01,2013-04-14 11:58:00,
2013-04-14 08:03:00,42.9,37.5,29.94,WSW,240,0.0,1.0,81,0.00,,SCT090,0.00,VWS V13.01,2013-04-14 12:03:00,
2013-04-14 08:08:00,43.5,37.4,29.93,WNW,298,2.0,4.0,79,0.00,,SCT090,0.00,VWS V13.01,2013-04-14 12:08:00,
2013-04-14 08:13:00,44.0,37.9,29.93,NNW,344,0.0,4.0,79,0.00,,SCT090,0.00,VWS V13.01,2013-04-14 12:13:00,
2013-04-14 08:18:00,44.4,38.0,29.93,NNW,344,0.0,4.0,78,0.00,,SCT090,0.00,VWS V13.01,2013-04-14 12:18:00,
2013-04-14 08:23:00,44.8,37.4,29.94,WNW,295,1.0,4.0,75,0.00,,SCT090,0.00,VWS V13.01,2013-04-14 12:23:00,
2013-04-14 08:28:00,45.3,37.5,29.95,West,274,1.0,5.0,74,0.00,,SCT090,0.00,VWS V13.01,2013-04-14 12:28:00,
2013-04-14 08:33:00,46.1,38.6,29.95,WNW,294,3.0,4.0,75,0.00,,SCT090,0.00,VWS V13.01,2013-04-14 12:33:00,
2013-04-14 08:38:00,46.9,37.6,29.95,WNW,284,1.0,4.0,70,0.00,,SCT090,0.00,VWS V13.01,2013-04-14 12:38:00,
2013-04-14 08:44:00,47.5,36.3,29.95,NW,311,1.0,9.0,65,0.00,,SCT090,0.00,VWS V13.01,2013-04-14 12:44:00,
2013-04-14 08:49:00,47.8,36.6,29.95,WNW,289,1.0,9.0,65,0.00,,SCT090,0.00,VWS V13.01,2013-04-14 12:49:00,
2013-04-14 08:54:00,48.1,36.9,29.95,West,279,3.0,9.0,65,0.00,,SCT090,0.00,VWS V13.01,2013-04-14 12:54:00,
2013-04-14 08:59:00,48.6,37.4,29.95,West,263,3.0,9.0,65,0.00,,SCT090,0.00,VWS V13.01,2013-04-14 12:59:00,
2013-04-14 09:04:00,48.9,37.7,29.95,West,276,2.0,5.0,65,0.00,,FEW050,0.00,VWS V13.01,2013-04-14 13:04:00,
2013-04-14 09:09:00,49.2,36.3,29.95,West,279,1.0,5.0,61,0.00,,FEW050,0.00,VWS V13.01,2013-04-14 13:09:00,
2013-04-14 09:14:00,49.5,37.0,29.95,WNW,295,0.0,6.0,62,0.00,,FEW050,0.00,VWS V13.01,2013-04-14 13:14:00,
2013-04-14 09:19:00,49.7,36.8,29.95,West,267,1.0,6.0,61,0.00,,FEW050,0.00,VWS V13.01,2013-04-14 13:19:00,
2013-04-14 09:24:00,49.6,35.9,29.95,West,275,0.0,6.0,59,0.00,,FEW050,0.00,VWS V13.01,2013-04-14 13:24:00,
2013-04-14 09:29:00,49.4,36.1,29.95,WNW,283,3.0,9.0,60,0.00,,FEW050,0.00,VWS V13.01,2013-04-14 13:29:00,
2013-04-14 09:34:00,49.1,35.4,29.95,NNW,331,1.0,4.0,59,0.00,,FEW050,0.00,VWS V13.01,2013-04-14 13:34:00,
2013-04-14 09:39:00,48.9,35.6,29.96,WSW,249,7.0,9.0,60,0.00,,FEW050,0.00,VWS V13.01,2013-04-14 13:39:00,
2013-04-14 09:45:00,48.5,35.3,29.96,West,277,0.0,11.0,60,0.00,,BKN090,0.00,VWS V13.01,2013-04-14 13:45:00,
2013-04-14 09:50:00,48.1,35.3,29.95,NW,311,0.0,11.0,61,0.00,,BKN090,0.00,VWS V13.01,2013-04-14 13:50:00,
2013-04-14 09:55:00,47.9,35.9,29.95,NW,325,0.0,11.0,63,0.00,,BKN090,0.00,VWS V13.01,2013-04-14 13:55:00,
2013-04-14 10:00:00,47.9,35.5,29.96,West,277,5.0,11.0,62,0.00,,BKN090,0.00,VWS V13.01,2013-04-14 14:00:00,
2013-04-14 10:05:00,47.5,34.3,29.96,WNW,290,1.0,5.0,60,0.00,,BKN090,0.00,VWS V13.01,2013-04-14 14:05:00,
2013-04-14 10:10:00,47.1,34.8,29.97,West,277,0.0,5.0,62,0.00,,BKN090,0.00,VWS V13.01,2013-04-14 14:10:00,
2013-04-14 10:15:00,46.9,33.8,29.96,West,273,2.0,7.0,60,0.00,,BKN090,0.00,VWS V13.01,2013-04-14 14:15:00,
2013-04-14 10:20:00,46.8,34.1,29.97,West,261,1.0,7.0,61,0.00,,BKN090,0.00,VWS V13.01,2013-04-14 14:20:00,
2013-04-14 10:25:00,46.7,34.4,29.97,SSW,204,0.0,7.0,62,0.00,,BKN090,0.00,VWS V13.01,2013-04-14 14:25:00,
2013-04-14 10:30:00,46.5,33.8,29.97,West,279,0.0,7.0,61,0.00,,BKN090,0.00,VWS V13.01,2013-04-14 14:30:00,
2013-04-14 10:35:00,46.3,34.0,29.97,West,281,0.0,4.0,62,0.00,,BKN090,0.00,VWS V13.01,2013-04-14 14:35:00,
2013-04-14 10:40:00,46.3,33.6,29.97,SW,229,0.0,5.0,61,0.00,,BKN090,0.00,VWS V13.01,2013-04-14 14:40:00,
2013-04-14 10:45:00,46.3,34.8,29.97,WSW,252,3.0,5.0,64,0.00,,OVC047,0.00,VWS V13.01,2013-04-14 14:45:00,
2013-04-14 10:50:00,46.3,34.4,29.97,West,275,2.0,5.0,63,0.00,,OVC047,0.00,VWS V13.01,2013-04-14 14:50:00,
2013-04-14 10:55:00,46.5,34.6,29.97,West,262,3.0,10.0,63,0.00,,OVC047,0.00,VWS V13.01,2013-04-14 14:55:00,
2013-04-14 11:00:00,46.7,34.4,29.97,WSW,239,2.0,10.0,62,0.00,,OVC047,0.00,VWS V13.01,2013-04-14 15:00:00,
2013-04-14 11:05:00,47.1,34.4,29.97,WNW,294,1.0,9.0,61,0.00,,OVC047,0.00,VWS V13.01,2013-04-14 15:05:00,
2013-04-14 11:10:00,47.8,33.8,29.97,North,351,3.0,9.0,58,0.00,,OVC047,0.00,VWS V13.01,2013-04-14 15:10:00,
2013-04-14 11:15:00,48.2,34.6,29.97,West,276,4.0,12.0,59,0.00,,OVC047,0.00,VWS V13.01,2013-04-14 15:15:00,
2013-04-14 11:20:00,48.8,34.3,29.97,West,269,4.0,14.0,57,0.00,,OVC047,0.00,VWS V13.01,2013-04-14 15:20:00,
2013-04-14 11:26:00,50.1,34.6,29.97,West,261,2.0,14.0,55,0.00,,OVC047,0.00,VWS V13.01,2013-04-14 15:26:00,
2013-04-14 11:31:00,51.6,37.3,29.96,West,259,3.0,14.0,58,0.00,,OVC047,0.00,VWS V13.01,2013-04-14 15:31:00,
2013-04-14 11:36:00,52.7,35.6,29.96,WNW,286,1.0,7.0,52,0.00,,OVC047,0.00,VWS V13.01,2013-04-14 15:36:00,
2013-04-14 11:41:00,53.4,35.2,29.96,SW,234,2.0,10.0,50,0.00,,OVC047,0.00,VWS V13.01,2013-04-14 15:41:00,
2013-04-14 11:46:00,54.1,34.3,29.96,WSW,245,1.0,10.0,47,0.00,,BKN080,0.00,VWS V13.01,2013-04-14 15:46:00,
2013-04-14 11:51:00,53.7,35.5,29.96,WSW,240,3.0,10.0,50,0.00,,BKN080,0.00,VWS V13.01,2013-04-14 15:51:00,
2013-04-14 11:56:00,54.3,37.5,29.96,West,259,4.0,10.0,53,0.00,,BKN080,0.00,VWS V13.01,2013-04-14 15:56:00,
2013-04-14 12:02:00,55.6,35.7,29.95,WNW,296,3.0,6.0,47,0.00,,BKN080,0.00,VWS V13.01,2013-04-14 16:02:00,
2013-04-14 12:07:00,55.9,34.9,29.95,West,261,3.0,11.0,45,0.00,,BKN080,0.00,VWS V13.01,2013-04-14 16:07:00,
2013-04-14 12:12:00,55.5,33.4,29.95,WNW,301,3.0,11.0,43,0.00,,BKN080,0.00,VWS V13.01,2013-04-14 16:12:00,
2013-04-14 12:17:00,54.5,33.0,29.95,WNW,286,4.0,11.0,44,0.00,,BKN080,0.00,VWS V13.01,2013-04-14 16:17:00,
2013-04-14 12:22:00,53.1,32.9,29.96,West,262,2.0,11.0,46,0.00,,BKN080,0.00,VWS V13.01,2013-04-14 16:22:00,
2013-04-14 12:27:00,52.2,33.1,29.96,WNW,287,4.0,11.0,48,0.00,,BKN080,0.00,VWS V13.01,2013-04-14 16:27:00,
2013-04-14 12:32:00,51.9,32.8,29.95,NNW,329,1.0,5.0,48,0.00,,BKN080,0.00,VWS V13.01,2013-04-14 16:32:00,
2013-04-14 12:37:00,52.6,33.5,29.95,West,266,1.0,5.0,48,0.00,,BKN080,0.00,VWS V13.01,2013-04-14 16:37:00,
2013-04-14 12:42:00,53.8,34.1,29.95,West,280,2.0,5.0,47,0.00,,BKN080,0.00,VWS V13.01,2013-04-14 16:42:00,
2013-04-14 12:47:00,54.2,33.9,29.95,South,180,1.0,5.0,46,0.00,,BKN060,0.00,VWS V13.01,2013-04-14 16:47:00,
2013-04-14 12:52:00,53.5,30.4,29.95,WNW,290,6.0,12.0,41,0.00,,BKN060,0.00,VWS V13.01,2013-04-14 16:52:00,
2013-04-14 12:57:00,52.4,32.2,29.95,WNW,296,1.0,12.0,46,0.00,,BKN060,0.00,VWS V13.01,2013-04-14 16:57:00,
2013-04-14 13:02:00,52.0,30.2,29.95,NW,309,2.0,12.0,43,0.00,,BKN060,0.00,VWS V13.01,2013-04-14 17:02:00,
2013-04-14 13:07:00,52.4,31.1,29.95,NNW,347,0.0,12.0,44,0.00,,BKN060,0.00,VWS V13.01,2013-04-14 17:07:00,
2013-04-14 13:12:00,52.5,30.7,29.96,West,276,3.0,12.0,43,0.00,,BKN060,0.00,VWS V13.01,2013-04-14 17:12:00,
2013-04-14 13:18:00,52.1,30.3,29.96,NW,306,1.0,12.0,43,0.00,,BKN060,0.00,VWS V13.01,2013-04-14 17:18:00,
2013-04-14 13:23:00,51.3,29.6,29.96,WNW,284,3.0,15.0,43,0.00,,BKN060,0.00,VWS V13.01,2013-04-14 17:23:00,
2013-04-14 13:28:00,50.8,31.3,29.96,NW,324,4.0,15.0,47,0.00,,BKN060,0.00,VWS V13.01,2013-04-14 17:28:00,
2013-04-14 13:33:00,50.5,31.0,29.96,NW,317,0.0,4.0,47,0.00,,BKN060,0.00,VWS V13.01,2013-04-14 17:33:00,
2013-04-14 13:38:00,50.5,32.1,29.96,West,263,1.0,4.0,49,0.00,,BKN060,0.00,VWS V13.01,2013-04-14 17:38:00,
2013-04-14 13:43:00,50.9,32.9,29.96,WNW,285,0.0,4.0,50,0.00,,BKN060,0.00,VWS V13.01,2013-04-14 17:43:00,
2013-04-14 13:48:00,52.9,34.8,29.96,NW,313,4.0,4.0,50,0.00,,BKN060,0.00,VWS V13.01,2013-04-14 17:48:00,
2013-04-14 13:53:00,53.5,32.1,29.96,NNE,22,2.0,6.0,44,0.00,,BKN060,0.00,VWS V13.01,2013-04-14 17:53:00,
2013-04-14 13:58:00,53.1,31.8,29.96,WNW,293,1.0,6.0,44,0.00,,BKN060,0.00,VWS V13.01,2013-04-14 17:58:00,
2013-04-14 14:03:00,52.7,32.0,29.97,WNW,294,0.0,3.0,45,0.00,,BKN060,0.00,VWS V13.01,2013-04-14 18:03:00,
2013-04-14 14:08:00,52.1,30.3,29.97,NNW,336,0.0,13.0,43,0.00,,BKN060,0.00,VWS V13.01,2013-04-14 18:08:00,
2013-04-14 14:13:00,51.4,30.2,29.97,NW,304,3.0,13.0,44,0.00,,BKN060,0.00,VWS V13.01,2013-04-14 18:13:00,
2013-04-14 14:18:00,51.3,30.7,29.97,West,276,0.0,13.0,45,0.00,,BKN060,0.00,VWS V13.01,2013-04-14 18:18:00,
2013-04-14 14:24:00,51.8,31.7,29.97,West,273,3.0,13.0,46,0.00,,BKN060,0.00,VWS V13.01,2013-04-14 18:24:00,
2013-04-14 14:29:00,52.2,31.0,29.97,NW,306,2.0,13.0,44,0.00,,BKN060,0.00,VWS V13.01,2013-04-14 18:29:00,
2013-04-14 14:34:00,51.9,31.2,29.97,WNW,293,3.0,7.0,45,0.00,,BKN060,0.00,VWS V13.01,2013-04-14 18:34:00,
2013-04-14 14:39:00,51.6,30.4,29.97,West,267,0.0,9.0,44,0.00,,BKN060,0.00,VWS V13.01,2013-04-14 18:39:00,
2013-04-14 14:44:00,51.5,32.5,29.98,WNW,298,1.0,9.0,48,0.00,,BKN060,0.00,VWS V13.01,2013-04-14 18:44:00,
2013-04-14 14:49:00,51.7,31.6,29.98,West,261,10.0,10.0,46,0.00,,BKN065,0.00,VWS V13.01,2013-04-14 18:49:00,
2013-04-14 14:54:00,51.7,31.1,29.98,West,273,0.0,10.0,45,0.00,,BKN065,0.00,VWS V13.01,2013-04-14 18:54:00,
2013-04-14 14:59:00,51.7,31.1,29.98,WNW,302,10.0,10.0,45,0.00,,BKN065,0.00,VWS V13.01,2013-04-14 18:59:00,
2013-04-14 15:04:00,51.9,30.1,29.98,WNW,289,1.0,9.0,43,0.00,,BKN065,0.00,VWS V13.01,2013-04-14 19:04:00,
2013-04-14 15:09:00,52.5,31.2,29.97,WNW,288,5.0,9.0,44,0.00,,BKN065,0.00,VWS V13.01,2013-04-14 19:09:00,
2013-04-14 15:14:00,52.4,30.0,29.97,NW,304,3.0,15.0,42,0.00,,BKN065,0.00,VWS V13.01,2013-04-14 19:14:00,
2013-04-14 15:19:00,51.9,29.5,29.97,NNW,331,4.0,15.0,42,0.00,,BKN065,0.00,VWS V13.01,2013-04-14 19:19:00,
2013-04-14 15:24:00,51.6,29.9,29.97,SE,132,2.0,15.0,43,0.00,,BKN065,0.00,VWS V13.01,2013-04-14 19:24:00,
2013-04-14 15:29:00,51.6,29.3,29.98,WNW,300,0.0,15.0,42,0.00,,BKN065,0.00,VWS V13.01,2013-04-14 19:29:00,
2013-04-14 15:34:00,51.9,29.5,29.98,NW,320,0.0,4.0,42,0.00,,BKN065,0.00,VWS V13.01,2013-04-14 19:34:00,
2013-04-14 15:39:00,52.5,30.1,29.98,NW,309,0.0,7.0,42,0.00,,BKN065,0.00,VWS V13.01,2013-04-14 19:39:00,
2013-04-14 15:45:00,52.9,30.5,29.98,WNW,302,0.0,12.0,42,0.00,,BKN065,0.00,VWS V13.01,2013-04-14 19:45:00,
2013-04-14 15:50:00,53.0,29.3,29.98,NW,309,1.0,12.0,40,0.00,,BKN070,0.00,VWS V13.01,2013-04-14 19:50:00,
2013-04-14 15:55:00,53.0,30.5,29.98,West,260,0.0,12.0,42,0.00,,BKN070,0.00,VWS V13.01,2013-04-14 19:55:00,
2013-04-14 16:00:00,52.7,29.7,29.98,West,280,1.0,17.0,41,0.00,,BKN070,0.00,VWS V13.01,2013-04-14 20:00:00,
2013-04-14 16:05:00,52.1,29.7,29.98,WNW,299,5.0,11.0,42,0.00,,BKN070,0.00,VWS V13.01,2013-04-14 20:05:00,
2013-04-14 16:10:00,51.3,29.0,29.99,West,279,4.0,21.0,42,0.00,,BKN070,0.00,VWS V13.01,2013-04-14 20:10:00,
2013-04-14 16:15:00,50.6,28.4,29.99,West,261,5.0,21.0,42,0.00,,BKN070,0.00,VWS V13.01,2013-04-14 20:15:00,
2013-04-14 16:20:00,50.6,29.5,29.99,ENE,58,2.0,21.0,44,0.00,,BKN070,0.00,VWS V13.01,2013-04-14 20:20:00,
2013-04-14 16:25:00,50.9,29.8,29.99,WNW,284,5.0,21.0,44,0.00,,BKN070,0.00,VWS V13.01,2013-04-14 20:25:00,
2013-04-14 16:30:00,51.3,30.1,30.00,WNW,302,0.0,21.0,44,0.00,,BKN070,0.00,VWS V13.01,2013-04-14 20:30:00,
2013-04-14 16:35:00,51.6,30.4,29.99,West,277,3.0,10.0,44,0.00,,BKN070,0.00,VWS V13.01,2013-04-14 20:35:00,
2013-04-14 16:40:00,51.5,30.3,30.00,NW,316,11.0,15.0,44,0.00,,BKN070,0.00,VWS V13.01,2013-04-14 20:40:00,
2013-04-14 16:45:00,50.9,29.2,30.00,West,275,2.0,15.0,43,0.00,,OVC075,0.00,VWS V13.01,2013-04-14 20:45:00,
2013-04-14 16:50:00,50.7,29.0,30.00,NW,306,0.0,15.0,43,0.00,,OVC075,0.00,VWS V13.01,2013-04-14 20:50:00,
2013-04-14 16:55:00,50.6,29.0,30.00,WNW,286,1.0,15.0,43,0.00,,OVC075,0.00,VWS V13.01,2013-04-14 20:55:00,
2013-04-14 17:00:00,50.6,30.1,30.00,West,281,1.0,15.0,45,0.00,,OVC075,0.00,VWS V13.01,2013-04-14 21:00:00,
2013-04-14 17:05:00,50.5,29.4,30.01,West,272,0.0,11.0,44,0.00,,OVC075,0.00,VWS V13.01,2013-04-14 21:05:00,
2013-04-14 17:10:00,50.1,29.6,30.02,NW,315,6.0,11.0,45,0.00,,OVC075,0.00,VWS V13.01,2013-04-14 21:10:00,
2013-04-14 17:15:00,49.8,29.3,30.02,NNW,327,2.0,13.0,45,0.00,,OVC075,0.00,VWS V13.01,2013-04-14 21:15:00,
2013-04-14 17:21:00,49.6,29.7,30.02,NW,320,0.0,13.0,46,0.00,,OVC075,0.00,VWS V13.01,2013-04-14 21:21:00,
2013-04-14 17:26:00,49.7,29.8,30.02,WNW,294,0.0,14.0,46,0.00,,OVC075,0.00,VWS V13.01,2013-04-14 21:26:00,
2013-04-14 17:31:00,49.8,30.4,30.02,West,267,2.0,14.0,47,0.00,,OVC075,0.00,VWS V13.01,2013-04-14 21:31:00,
2013-04-14 17:36:00,49.7,30.3,30.02,NW,315,2.0,9.0,47,0.00,,OVC075,0.00,VWS V13.01,2013-04-14 21:36:00,
2013-04-14 17:42:00,49.6,29.1,30.03,NNW,338,5.0,10.0,45,0.00,,OVC075,0.00,VWS V13.01,2013-04-14 21:42:00,
2013-04-14 17:47:00,49.4,29.5,30.03,North,5,4.0,12.0,46,0.00,,BKN075,0.00,VWS V13.01,2013-04-14 21:47:00,
2013-04-14 17:52:00,49.3,29.9,30.03,NW,325,1.0,12.0,47,0.00,,BKN075,0.00,VWS V13.01,2013-04-14 21:52:00,
2013-04-14 17:57:00,49.1,29.8,30.04,WNW,289,3.0,12.0,47,0.00,,BKN075,0.00,VWS V13.01,2013-04-14 21:57:00,
2013-04-14 18:02:00,49.0,29.1,30.04,North,360,5.0,5.0,46,0.00,,BKN075,0.00,VWS V13.01,2013-04-14 22:02:00,
2013-04-14 18:07:00,48.8,29.0,30.04,WSW,253,0.0,8.0,46,0.00,,BKN075,0.00,VWS V13.01,2013-04-14 22:07:00,
2013-04-14 18:12:00,48.8,28.4,30.05,NNW,345,3.0,13.0,45,0.00,,BKN075,0.00,VWS V13.01,2013-04-14 22:12:00,
2013-04-14 18:17:00,48.7,28.3,30.05,WNW,295,0.0,13.0,45,0.00,,BKN075,0.00,VWS V13.01,2013-04-14 22:17:00,
2013-04-14 18:23:00,48.5,28.7,30.05,WNW,298,0.0,17.0,46,0.00,,BKN075,0.00,VWS V13.01,2013-04-14 22:23:00,
2013-04-14 18:28:00,48.2,28.9,30.05,NW,311,5.0,17.0,47,0.00,,BKN075,0.00,VWS V13.01,2013-04-14 22:28:00,
2013-04-14 18:33:00,48.0,28.2,30.05,West,280,2.0,4.0,46,0.00,,BKN075,0.00,VWS V13.01,2013-04-14 22:33:00,
2013-04-14 18:38:00,47.9,28.1,30.05,NW,304,1.0,11.0,46,0.00,,BKN075,0.00,VWS V13.01,2013-04-14 22:38:00,
2013-04-14 18:43:00,47.8,28.6,30.05,NW,326,0.0,11.0,47,0.00,,BKN075,0.00,VWS V13.01,2013-04-14 22:43:00,
2013-04-14 18:48:00,47.6,27.9,30.06,NW,325,1.0,11.0,46,0.00,,CLR,0.00,VWS V13.01,2013-04-14 22:48:00,
2013-04-14 18:53:00,47.4,28.2,30.05,WNW,302,2.0,11.0,47,0.00,,CLR,0.00,VWS V13.01,2013-04-14 22:53:00,
2013-04-14 18:58:00,47.3,28.6,30.06,WNW,300,1.0,11.0,48,0.00,,CLR,0.00,VWS V13.01,2013-04-14 22:58:00,
2013-04-14 19:03:00,47.0,29.3,30.06,West,273,0.0,5.0,50,0.00,,CLR,0.00,VWS V13.01,2013-04-14 23:03:00,
2013-04-14 19:08:00,46.7,28.6,30.06,NW,309,1.0,5.0,49,0.00,,CLR,0.00,VWS V13.01,2013-04-14 23:08:00,
2013-04-14 19:13:00,46.5,28.4,30.06,NW,309,0.0,5.0,49,0.00,,CLR,0.00,VWS V13.01,2013-04-14 23:13:00,
2013-04-14 19:18:00,46.2,28.6,30.07,NNW,345,1.0,6.0,50,0.00,,CLR,0.00,VWS V13.01,2013-04-14 23:18:00,
2013-04-14 19:23:00,46.0,28.4,30.08,West,279,0.0,6.0,50,0.00,,CLR,0.00,VWS V13.01,2013-04-14 23:23:00,
2013-04-14 19:28:00,45.8,28.7,30.08,WNW,298,0.0,6.0,51,0.00,,CLR,0.00,VWS V13.01,2013-04-14 23:28:00,
2013-04-14 19:33:00,45.6,28.5,30.08,NW,313,0.0,3.0,51,0.00,,CLR,0.00,VWS V13.01,2013-04-14 23:33:00,
2013-04-14 19:38:00,45.4,28.8,30.08,WNW,288,1.0,5.0,52,0.00,,CLR,0.00,VWS V13.01,2013-04-14 23:38:00,
2013-04-14 19:43:00,45.3,28.7,30.09,NNW,340,1.0,7.0,52,0.00,,CLR,0.00,VWS V13.01,2013-04-14 23:43:00,
2013-04-14 19:48:00,45.1,29.5,30.09,NNW,340,0.0,7.0,54,0.00,,CLR,0.00,VWS V13.01,2013-04-14 23:48:00,
2013-04-14 19:53:00,44.8,29.2,30.09,NNW,340,1.0,7.0,54,0.00,,CLR,0.00,VWS V13.01,2013-04-14 23:53:00,
2013-04-14 19:58:00,44.5,29.4,30.09,West,267,0.0,7.0,55,0.00,,CLR,0.00,VWS V13.01,2013-04-14 23:58:00,
2013-04-14 20:03:00,44.2,29.1,30.10,SSW,209,0.0,3.0,55,0.00,,CLR,0.00,VWS V13.01,2013-04-15 00:03:00,
2013-04-14 20:09:00,44.0,29.3,30.10,WNW,298,0.0,3.0,56,0.00,,CLR,0.00,VWS V13.01,2013-04-15 00:09:00,
2013-04-14 20:14:00,43.8,29.1,30.10,WNW,303,1.0,3.0,56,0.00,,CLR,0.00,VWS V13.01,2013-04-15 00:14:00,
2013-04-14 20:19:00,43.7,29.0,30.11,WNW,302,0.0,3.0,56,0.00,,CLR,0.00,VWS V13.01,2013-04-15 00:19:00,
2013-04-14 20:24:00,43.4,28.8,30.11,WSW,257,0.0,3.0,56,0.00,,CLR,0.00,VWS V13.01,2013-04-15 00:24:00,
2013-04-14 20:29:00,43.2,29.0,30.11,WSW,257,0.0,3.0,57,0.00,,CLR,0.00,VWS V13.01,2013-04-15 00:29:00,
2013-04-14 20:34:00,43.1,28.9,30.12,WSW,257,0.0,0.0,57,0.00,,CLR,0.00,VWS V13.01,2013-04-15 00:34:00,
2013-04-14 20:39:00,42.8,28.6,30.12,WSW,257,0.0,0.0,57,0.00,,CLR,0.00,VWS V13.01,2013-04-15 00:39:00,
2013-04-14 20:44:00,42.5,28.8,30.12,WSW,257,0.0,0.0,58,0.00,,CLR,0.00,VWS V13.01,2013-04-15 00:44:00,
2013-04-14 20:49:00,42.2,28.5,30.13,WSW,257,0.0,0.0,58,0.00,,CLR,0.00,VWS V13.01,2013-04-15 00:49:00,
2013-04-14 20:54:00,41.9,28.2,30.13,WSW,257,0.0,0.0,58,0.00,,CLR,0.00,VWS V13.01,2013-04-15 00:54:00,
2013-04-14 20:59:00,41.6,28.4,30.14,WSW,257,0.0,0.0,59,0.00,,CLR,0.00,VWS V13.01,2013-04-15 00:59:00,
2013-04-14 21:05:00,41.4,28.6,30.14,WSW,257,0.0,0.0,60,0.00,,CLR,0.00,VWS V13.01,2013-04-15 01:05:00,
2013-04-14 21:10:00,41.1,29.1,30.15,WSW,257,0.0,0.0,62,0.00,,CLR,0.00,VWS V13.01,2013-04-15 01:10:00,
2013-04-14 21:15:00,40.9,28.9,30.15,WSW,257,0.0,0.0,62,0.00,,CLR,0.00,VWS V13.01,2013-04-15 01:15:00,
2013-04-14 21:20:00,40.6,28.6,30.16,WSW,257,0.0,0.0,62,0.00,,CLR,0.00,VWS V13.01,2013-04-15 01:20:00,
2013-04-14 21:25:00,40.5,28.5,30.16,WSW,257,0.0,0.0,62,0.00,,CLR,0.00,VWS V13.01,2013-04-15 01:25:00,
2013-04-14 21:30:00,40.3,28.7,30.16,WSW,257,0.0,0.0,63,0.00,,CLR,0.00,VWS V13.01,2013-04-15 01:30:00,
2013-04-14 21:35:00,40.1,28.9,30.16,WSW,257,0.0,0.0,64,0.00,,CLR,0.00,VWS V13.01,2013-04-15 01:35:00,
2013-04-14 21:40:00,39.9,28.7,30.16,WSW,257,0.0,0.0,64,0.00,,CLR,0.00,VWS V13.01,2013-04-15 01:40:00,
2013-04-14 21:45:00,39.7,28.5,30.16,WSW,257,0.0,0.0,64,0.00,,CLR,0.00,VWS V13.01,2013-04-15 01:45:00,
2013-04-14 21:50:00,39.4,28.2,30.16,WSW,257,0.0,0.0,64,0.00,,CLR,0.00,VWS V13.01,2013-04-15 01:50:00,
2013-04-14 21:55:00,39.2,28.4,30.16,WSW,257,0.0,0.0,65,0.00,,CLR,0.00,VWS V13.01,2013-04-15 01:55:00,
2013-04-14 22:00:00,39.0,28.6,30.16,WSW,257,0.0,0.0,66,0.00,,CLR,0.00,VWS V13.01,2013-04-15 02:00:00,
2013-04-14 22:05:00,38.8,28.8,30.16,WSW,257,0.0,0.0,67,0.00,,CLR,0.00,VWS V13.01,2013-04-15 02:05:00,
2013-04-14 22:10:00,38.7,28.7,30.16,WSW,257,0.0,1.0,67,0.00,,CLR,0.00,VWS V13.01,2013-04-15 02:10:00,
2013-04-14 22:15:00,38.6,29.0,30.16,WSW,257,0.0,1.0,68,0.00,,CLR,0.00,VWS V13.01,2013-04-15 02:15:00,
2013-04-14 22:20:00,38.4,29.5,30.16,WSW,257,0.0,1.0,70,0.00,,CLR,0.00,VWS V13.01,2013-04-15 02:20:00,
2013-04-14 22:25:00,38.4,29.8,30.17,WSW,257,0.0,1.0,71,0.00,,CLR,0.00,VWS V13.01,2013-04-15 02:25:00,
2013-04-14 22:30:00,38.4,29.1,30.16,WSW,257,0.0,2.0,69,0.00,,CLR,0.00,VWS V13.01,2013-04-15 02:30:00,
2013-04-14 22:36:00,38.3,29.0,30.16,WSW,257,0.0,1.0,69,0.00,,CLR,0.00,VWS V13.01,2013-04-15 02:36:00,
2013-04-14 22:41:00,38.2,29.3,30.17,WSW,257,0.0,1.0,70,0.00,,CLR,0.00,VWS V13.01,2013-04-15 02:41:00,
2013-04-14 22:46:00,38.2,29.6,30.17,WSW,257,0.0,1.0,71,0.00,,CLR,0.00,VWS V13.01,2013-04-15 02:46:00,
2013-04-14 22:51:00,38.2,29.6,30.17,West,277,0.0,2.0,71,0.00,,CLR,0.00,VWS V13.01,2013-04-15 02:51:00,
2013-04-14 22:56:00,38.1,29.5,30.17,NW,313,0.0,2.0,71,0.00,,CLR,0.00,VWS V13.01,2013-04-15 02:56:00,
2013-04-14 23:01:00,38.1,29.9,30.17,NW,313,0.0,0.0,72,0.00,,CLR,0.00,VWS V13.01,2013-04-15 03:01:00,
2013-04-14 23:06:00,37.9,29.4,30.17,NW,313,1.0,1.0,71,0.00,,CLR,0.00,VWS V13.01,2013-04-15 03:06:00,
2013-04-14 23:11:00,37.8,28.9,30.17,NW,313,0.0,1.0,70,0.00,,CLR,0.00,VWS V13.01,2013-04-15 03:11:00,
2013-04-14 23:16:00,37.7,29.2,30.17,NW,313,0.0,1.0,71,0.00,,CLR,0.00,VWS V13.01,2013-04-15 03:16:00,
2013-04-14 23:21:00,37.6,29.1,30.17,NNW,341,0.0,1.0,71,0.00,,CLR,0.00,VWS V13.01,2013-04-15 03:21:00,
2013-04-14 23:27:00,37.6,29.4,30.18,NNW,341,0.0,1.0,72,0.00,,CLR,0.00,VWS V13.01,2013-04-15 03:27:00,
2013-04-14 23:32:00,37.5,29.3,30.18,NNW,341,0.0,0.0,72,0.00,,CLR,0.00,VWS V13.01,2013-04-15 03:32:00,
2013-04-14 23:37:00,37.2,29.0,30.18,NNW,341,0.0,0.0,72,0.00,,CLR,0.00,VWS V13.01,2013-04-15 03:37:00,
2013-04-14 23:42:00,37.0,29.2,30.18,NNW,341,0.0,0.0,73,0.00,,CLR,0.00,VWS V13.01,2013-04-15 03:42:00,
2013-04-14 23:47:00,36.7,29.2,30.18,NNW,341,0.0,0.0,74,0.00,,CLR,0.00,VWS V13.01,2013-04-15 03:47:00,
2013-04-14 23:52:00,36.4,28.9,30.19,NNW,341,0.0,0.0,74,0.00,,CLR,0.00,VWS V13.01,2013-04-15 03:52:00,
2013-04-14 23:57:00,36.2,28.7,30.19,NNW,341,0.0,0.0,74,0.00,,CLR,0.00,VWS V13.01,2013-04-15 03:57:00,